Burlington, CO

6:57 AM MST on February 21, 2018 (GMT -0700)
Kit Carson County

Weather History for KITR - October, 2013

Change the Weather History Date:

Tuesday, October 8, 2013

  Actual Average Record
Temperature  
Mean Temperature 61 °F 54 °F  
Max Temperature 82 °F 69 °F 90 °F (1979)
Min Temperature 40 °F 39 °F 22 °F (1970)
Degree Days  
Heating Degree Days 4    
Growing Degree Days 12 (Base 50)    
Moisture  
Dew Point 28 °F    
Average Humidity 32    
Maximum Humidity 60    
Minimum Humidity 12    
Precipitation  
Precipitation 0.00 in 0.04 in 0.65 in (1993)
Month to date precipitation 0.01 0.32  
Year to date precipitation 15.91 15.61  
Sea Level Pressure  
Sea Level Pressure 29.71 in    
Wind  
Wind Speed 13 mph (South)    
Max Wind Speed 17 mph    
Max Gust Speed 28 mph    
Visibility 10 miles    
Events      
T = Trace of Precipitation, MM = Missing Value Source: NWS Daily Summary

Daily Weather History Graph

Daily Weather History Graph

Search for Another Location

Airport or City:

Trip Planner

Search our weather history database for the weather conditions in past years. The results will help you decide how hot, cold, wet, or windy it might be!

Date:

Astronomy

Oct. 08, 2013 Rise Set
Actual Time 6:52 AM MDT 6:20 PM MDT
Civil Twilight 6:25 AM MDT 6:47 PM MDT
Nautical Twilight 5:54 AM MDT 7:18 PM MDT
Astronomical Twilight 5:23 AM MDT 7:49 PM MDT
Moon 10:47 AM MDT (10/8) 9:00 PM MDT (10/8)
Length of Visible Light 12h 21m
Length of Day
11h 28m
Waxing Crescent, 16% of the Moon is Illuminated
Oct 8
Waxing Crescent
Oct 11
First Quarter
Oct 18
Full
Oct 26
Last Quarter
Nov 3
New

Hourly Weather History & Observations

Time (MDT) Temp. Windchill Dew Point Humidity Pressure Visibility Wind Dir Wind Speed Gust Speed Precip Events Conditions
12:53 AM 48.9 °F - 27.0 °F 43% 29.81 in 10.0 mi South 13.8 mph - N/A   Clear
1:53 AM 46.9 °F - 27.0 °F 46% 29.80 in 10.0 mi South 11.5 mph - N/A   Clear
2:53 AM 44.1 °F 38.6 °F 28.0 °F 53% 29.77 in 10.0 mi SSW 10.4 mph - N/A   Clear
3:53 AM 44.1 °F 38.6 °F 28.0 °F 53% 29.76 in 10.0 mi SSW 10.4 mph - N/A   Clear
4:53 AM 44.1 °F 39.0 °F 28.9 °F 55% 29.75 in 10.0 mi SSW 9.2 mph - N/A   Clear
5:53 AM 42.1 °F 37.1 °F 28.9 °F 60% 29.77 in 10.0 mi SW 8.1 mph - N/A   Clear
6:53 AM 43.0 °F 37.7 °F 28.9 °F 58% 29.79 in 10.0 mi SSW 9.2 mph - N/A   Clear
7:53 AM 50.0 °F - 30.0 °F 46% 29.80 in 10.0 mi SSW 9.2 mph - N/A   Clear
8:53 AM 57.9 °F - 30.0 °F 35% 29.78 in 10.0 mi SSW 15.0 mph - N/A   Clear
9:53 AM 64.0 °F - 30.0 °F 28% 29.77 in 10.0 mi SSW 12.7 mph - N/A   Clear
10:53 AM 73.0 °F - 30.0 °F 20% 29.74 in 10.0 mi SSW 16.1 mph - N/A   Clear
11:53 AM 75.9 °F - 28.0 °F 17% 29.71 in 10.0 mi South 15.0 mph 20.7 mph N/A   Clear
12:53 PM 78.1 °F - 30.9 °F 18% 29.68 in 10.0 mi South 17.3 mph 23.0 mph N/A   Clear
1:53 PM 78.1 °F - 30.0 °F 17% 29.66 in 10.0 mi South 16.1 mph 23.0 mph N/A   Clear
2:53 PM 78.1 °F - 26.1 °F 15% 29.66 in 10.0 mi South 17.3 mph - N/A   Clear
3:53 PM 81.0 °F - 28.0 °F 14% 29.63 in 10.0 mi South 16.1 mph 23.0 mph N/A   Clear
4:53 PM 80.1 °F - 23.0 °F 12% 29.63 in 10.0 mi SSW 17.3 mph - N/A   Clear
5:53 PM 73.9 °F - 30.0 °F 20% 29.65 in 10.0 mi South 11.5 mph - N/A   Clear
6:53 PM 66.0 °F - 28.9 °F 25% 29.66 in 10.0 mi SSE 10.4 mph - N/A   Clear
7:53 PM 64.0 °F - 30.9 °F 29% 29.66 in 10.0 mi South 12.7 mph - N/A   Clear
8:53 PM 66.9 °F - 28.0 °F 23% 29.64 in 10.0 mi South 17.3 mph 27.6 mph N/A   Clear
9:53 PM 62.1 °F - 27.0 °F 26% 29.64 in 10.0 mi South 15.0 mph - N/A   Clear
10:53 PM 60.1 °F - 25.0 °F 26% 29.62 in 10.0 mi South 16.1 mph 25.3 mph N/A   Clear
11:53 PM 57.9 °F - 27.0 °F 31% 29.62 in 10.0 mi South 15.0 mph - N/A   Clear